This demonstration page uses our WeatherBlox Daily Observations layout. Learn more.

Left ArrowRight Arrow

Hourly Observations for July 1, 2022

Temp ( °F °C ) Dew Point ( °F °C ) Humidity (%) Winds ( mph kmh ) Pressure ( in mb ) Visibility ( mi km ) Precip ( " mm )
12:52 am 00:52 Mostly Cloudy 77 25 68 20 74 74 N 13 20 29.89 1012 10 16 0.00 0.00
1:52 am 01:52 Mostly Cloudy 76 24.4 63 17.2 64 64 N 13 20 29.91 1013 10 16 0.00 0.00
2:52 am 02:52 Mostly Cloudy 75 23.9 59 15 58 58 NNW 9 15 29.93 1014 10 16 0.00 0.00
3:52 am 03:52 Mostly Cloudy 71 21.7 59 15 66 66 NNW 6 9 29.93 1014 10 16 0.00 0.00
4:52 am 04:52 Mostly Cloudy 70 21.1 59 15 68 68 NNW 7 11 29.95 1014 10 16 0.00 0.00
4:54 am 04:54 Mostly Cloudy with Thunderstorms 70 21.1 59 15 68 68 NNW 6 9 29.95 1014 10 16 0.00 0.00
5:52 am 05:52 Cloudy with Strong Thunderstorms 69 20.6 62 16.7 78 78 W 7 11 30.01 1016 7 11 0.04 1.02
6:47 am 06:47 Cloudy with Rain 66 19 63 17 88 88 NNW 14 22 30.05 1017 8 13 0.16 4.06
6:52 am 06:52 Cloudy with Rain 66 18.9 62 16.7 87 87 NW 16 26 30.04 1017 7 11 0.17 4.32
7:52 am 07:52 Cloudy with Light Rain 64 17.8 62 16.7 93 93 N 10 17 30.06 1018 7 11 0.06 1.52
8:52 am 08:52 Cloudy with Light Rain 66 18.9 63 17.2 90 90 SE 5 7 30.04 1017 10 16 0.02 0.51
9:52 am 09:52 Cloudy with Light Rain 67 19.4 64 17.8 91 91 N 5 7 30.04 1017 10 16 0.00 0.00
10:52 am 10:52 Cloudy with Light Rain 68 20 62 16.7 81 81 SE 9 15 30.04 1017 10 16 0.00 0.00
11:52 am 11:52 Cloudy with Light Rain 69 20.6 62 16.7 78 78 ESE 8 13 30.05 1018 10 16 0.00 0.00
12:52 pm 12:52 Cloudy 69 20.6 62 16.7 78 78 N 10 17 30.05 1018 10 16 0.00 0.00
1:52 pm 13:52 Mostly Cloudy 71 21.7 63 17.2 76 76 ESE 5 7 30.06 1018 10 16 0.00 0.00
2:52 pm 14:52 Mostly Cloudy 75 23.9 62 16.7 64 64 VRB 7 11 30.04 1017 10 16 0.00 0.00
3:52 pm 15:52 Mostly Cloudy 77 25 63 17.2 62 62 VRB 6 9 30.04 1017 10 16 0.00 0.00
4:52 pm 16:52 Mostly Cloudy 78 25.6 62 16.7 58 58 SSE 6 9 30.03 1017 10 16 0.00 0.00
5:52 pm 17:52 Partly Cloudy 79 26.1 60 15.6 52 52 SE 5 7 30.02 1017 10 16 0.00 0.00
6:52 pm 18:52 Mostly Sunny 79 26.1 58 14.4 49 49 ESE 8 13 30.00 1016 10 16 0.00 0.00
7:52 pm 19:52 Mostly Sunny 78 25.6 60 15.6 54 54 E 7 11 30.00 1016 10 16 0.00 0.00
8:52 pm 20:52 Mostly Sunny 75 23.9 63 17.2 66 66 ESE 6 9 30.00 1016 10 16 0.00 0.00
9:52 pm 21:52 Mostly Clear 70 21.1 63 17.2 79 79 ESE 5 7 30.01 1016 10 16 0.00 0.00
10:52 pm 22:52 Clear 70 21.1 63 17.2 79 79 ESE 3 6 30.02 1017 10 16 0.00 0.00
11:52 pm 23:52 Clear 67 19.4 63 17.2 87 87 SE 6 9 30.02 1017 10 16 0.00 0.00

Powered by AerisWeather